Weather in Narodychi

Ukraine / Zhytomyr Region     51˚12′09″N   29˚04′50″E
temp.,
°C
wind,
m/s
gust,
m/s
humid.,
%
clouds,
%
prec.,
mm/h
press.,
hPa
HPBL,
m
1 december, tue
tue123:00−1˚wsw0173100 0.0 1029414
02:00−1˚nw127399 0.0 1029290
05:00−2˚n017975 0.0 102921
08:00−3˚ene118244 0.0 102921
11:00ene23660 0.0 1029495
14:00+1˚ne34600 0.0 1029634
17:00−2˚ne36770 0.0 1029136
20:00−2˚ne38805 0.0 1029282
2 december, wed
wed223:00−1˚ne359083 0.1 1029276
02:00−1˚ne369492 0.2 1029359
05:00−1˚ne369699 0.3 1028399
08:00−1˚ene259798 0.4 1028246
11:00ese348899 0.1 1028404
14:00ene3488100 0.1 1027301
17:00−1˚ene359895 0.2 1026245
20:00ese469596 0.4 1026432
3 december, thu
thu323:00−1˚ese4795100 0.1 1026381
02:00−1˚ese479799 0.6 1026314
05:00−1˚ese479781 0.2 1025272
08:00−1˚se359786 0.2 1025249
11:00+1˚se4793100 0.1 1024413
14:00+1˚se469598 0.1 1024419
17:00+1˚ese4894100 0.0 1023361
20:00+1˚se4993100 0.1 1023436
4 december, fri
fri423:00se4109285 0.0 1022314
02:00+1˚se5108887 0.0 1021383
05:00+2˚se51289100 0.0 1020465
08:00+2˚se61388100 0.0 1021498
11:00+4˚se6138594 0.0 1021569
14:00+4˚se6128055 0.0 1020670
17:00+2˚se715882 0.0 1020564
20:00+1˚se714899 0.0 1020558
5 december, sat
sat523:00+3˚sse7128796 0.0 1020717
02:00+4˚se5119098 0.0 1021652
05:00+4˚se61289100 0.0 1020613
08:00+4˚se61288100 0.0 1021641
11:00+4˚se71388100 0.6 1021699
14:00+4˚se61285100 1.6 1021709
17:00+4˚se71385100 0.0 1022590
20:00+3˚se71482100 0.0 1022616